Home   Weather   Ontonagon   Past weeks
Flag for USA

Past Weather in Ontonagon, Michigan, USA — Yesterday and Last 2 Weeks

Now
32 °F

Light snow. Ice fog.


Feels Like: 29 °F
Forecast: 32 / 27 °F
Wind: 3 mph from Northeast

Location: Ironwood Weather Reporting System

Current Time: Jan 24, 2020 at 5:56:11 pm

Latest Report: Jan 24, 2020 at 5:22 pm


Visibility: 3 mi

Pressure: 29.98 "Hg

Humidity: 93%

Dew Point: 30 °F

Location of OntonagonLocation

Past Weather in Ontonagon — Graph

°F

Ontonagon Temperature Yesterday

Maximum temperature yesterday: 34 °F (at 1:23 pm)
Minimum temperature yesterday: 28 °F (at 9:56 pm)
Average temperature yesterday: 30 °F

High & Low Weather Summary for the Past Weeks

 TemperatureHumidityPressure
High35 °F (Jan 24, 1:56 pm)100% (Jan 23, 8:39 am)30.89 "Hg (Jan 23, 8:39 am)
Low-19 °F (Jan 17, 2:56 am)50% (Jan 20, 3:56 pm)29.57 "Hg (Jan 18, 2:30 pm)
Average18 °F84%30.18 "Hg
* Reported Jan 9 4:36 pm — Jan 24 4:56 pm, Ontonagon. Weather by CustomWeather, © 2020

Note: Actual official high and low records may vary slightly from our data, if they occured in-between our weather recording intervals... More about our weather records

Ontonagon Weather History for the Previous 24 Hours

Scroll right to see more
 ConditionsComfort  
Time TempWeatherWind HumidityBarometerVisibility
4:56 pm
Fri, Jan 24
32 °FLight snow. Ice fog.5 mph92%29.97 "Hg1 mi
4:33 pm34 °FLight snow. Fog.6 mph87%29.93 "Hg5 mi
3:10 pm34 °FLight snow. Fog.7 mph87%29.98 "Hg4 mi
2:56 pm34 °FLight snow. Fog.5 mph88%30.03 "Hg4 mi
2:33 pm34 °FLight snow. Fog.5 mph93%29.98 "Hg5 mi
2:10 pm34 °FLight rain. Fog.6 mph87%29.97 "Hg1 mi
1:56 pm35 °FLight snow. Fog.3 mph85%30.00 "Hg1 mi
12:56 pm33 °FLight snow. Fog.6 mph88%30.08 "Hg2 mi
12:23 pm34 °FLight snow. Fog.6 mph81%30.03 "Hg1 mi
12:01 pm32 °FLight snow. Ice fog.7 mph87%30.05 "Hg3 mi
11:25 am30 °FLight snow. Ice fog.8 mph93%30.06 "Hg3 mi
11:16 am30 °FLight snow. Ice fog.7 mph93%30.05 "Hg2 mi
10:56 am30 °FLight snow. Mostly cloudy.9 mph92%30.10 "Hg8 mi
9:56 am29 °FLow clouds.7 mph96%30.10 "Hg10 mi
9:18 am28 °FLight snow. Mostly cloudy.8 mph100%30.06 "Hg9 mi
9:08 am28 °FLight snow. Cloudy.7 mph100%30.05 "Hg9 mi
8:56 am29 °FLight snow. More clouds than sun.6 mph96%30.11 "Hg9 mi
8:21 am28 °FLight snow. Mostly cloudy.7 mph93%30.03 "Hg9 mi
7:56 am29 °FOvercast.7 mph96%30.10 "Hg10 mi
6:56 am29 °FLight snow. Overcast.7 mph96%30.10 "Hg9 mi
5:56 am29 °FLight snow. Low clouds.8 mph96%30.11 "Hg9 mi
4:56 am29 °FLight snow. Low clouds.7 mph96%30.09 "Hg9 mi
4:11 am28 °FLight snow. Ice fog.5 mph100%30.05 "Hg6 mi
3:56 am29 °FLight snow. Ice fog.3 mph96%30.09 "Hg5 mi
2:56 am29 °FLight snow. Overcast.3 mph96%30.10 "Hg10 mi
1:56 am29 °FLight snow. Overcast.3 mph96%30.11 "Hg10 mi
1:21 am28 °FLight snow. Ice fog.3 mph100%30.09 "Hg6 mi
1:08 am28 °FLight snow. Ice fog.3 mph100%30.06 "Hg2 mi
12:44 am28 °FLight snow. Ice fog.3 mph100%30.09 "Hg2 mi
12:06 am28 °FLight snow. Ice fog.No wind100%30.09 "Hg2 mi
11:42 pm
Thu, Jan 23
28 °FLight snow. Ice fog.No wind93%30.09 "Hg2 mi
10:56 pm28 °FLight snow. Ice fog.3 mph96%30.13 "Hg3 mi
10:41 pm28 °FLight snow. Ice fog.No wind93%30.07 "Hg2 mi
10:18 pm28 °FLight snow. Low clouds.3 mph93%30.07 "Hg8 mi
9:56 pm28 °FLight snow. Ice fog.No wind96%30.13 "Hg5 mi
9:12 pm28 °FLight snow. Ice fog.No wind93%30.10 "Hg6 mi
9:03 pm28 °FLight snow. Ice fog.No wind93%30.11 "Hg4 mi
8:56 pm29 °FLight snow. Ice fog.No wind93%30.16 "Hg2 mi
8:39 pm28 °FLight snow. Ice fog.3 mph93%30.11 "Hg2 mi
8:10 pm28 °FLight snow. Ice fog.5 mph93%30.10 "Hg2 mi
7:56 pm29 °FLight snow. Ice fog.5 mph93%30.14 "Hg2 mi
6:56 pm29 °FLight snow. Ice fog.7 mph93%30.14 "Hg2 mi
5:56 pm29 °FLight snow. Ice fog.8 mph93%30.14 "Hg6 mi
5:28 pm28 °FLight snow. Ice fog.8 mph100%30.06 "Hg1 mi
5:14 pm30 °FLight snow. Ice fog.7 mph93%30.06 "Hg1 mi
Weather by CustomWeather, © 2020

See weather overview

Advertising